[[{"header":{"parameterUnit":"m.s-1","parameterCategory":1,"la1":30.2991,"la2":30.254,"lo1":-89.0895,"lo2":-89.0444,"dy":0.0017,"dx":0.0017,"nx":28,"ny":28,"refTime":"2025-03-09T21:00:00:Z","depth":0,"parameterNumber":2,"parameterNumberName":"U-component_of_WINDS"},"data":[0,0,0,0,0,0,0,0,0,0,0,0,0,0,0,0,0,0,0,0,0,0,0,0,0,0,0,0,0,0,0,0,0,0,0,0,0,0,0,0,0,0,0,0,0,0,0,0,0,0,0,0,0,0,0,0,0,0,1.5277,1.5278,0,1.5417,1.5418,1.542,1.5468,1.5467,1.5467,1.5466,1.5615,1.562,1.5624,0,0,0,0,0,0,0,0,0,0,0,0,0,1.5058,1.5062,1.5277,1.5279,1.528,1.5417,1.5418,1.542,1.5468,1.5467,1.5466,1.5466,1.5614,1.5619,1.5625,0,0,0,0,0,0,0,0,0,0,0,0,0,1.5171,1.5063,1.5277,1.532,1.5326,1.5416,1.5419,1.5421,1.5468,1.5467,1.5466,1.5465,1.5612,1.5619,1.5625,1.5684,0,0,1.5646,1.5649,0,0,0,0,0,0,0,0,1.5165,1.5179,1.5312,1.5317,1.5323,1.5424,1.5396,1.551,1.5468,1.5414,1.5466,1.5465,1.5553,1.5564,1.5593,1.5691,1.5698,1.5647,1.5651,1.5654,1.5656,0,0,0,0,0,0,0,1.5157,1.5173,1.5332,1.5314,1.5321,1.5335,1.535,1.5418,1.5487,1.5419,1.5422,1.5438,1.5556,1.5586,1.5596,1.57,1.5646,1.5652,1.5657,1.5659,1.5857,1.5858,0,0,0,0,0,0,1.5141,1.5166,1.5328,1.5337,1.524,1.534,1.5357,1.5393,1.5486,1.5499,1.5439,1.544,1.5575,1.5589,1.5602,1.5678,1.5654,1.566,1.5664,1.5856,1.5857,1.5859,0,0,0,0,0,0,1.5136,1.5154,1.5322,1.5253,1.5275,1.5345,1.5384,1.5396,1.5426,1.5501,1.5514,1.5456,1.5575,1.5592,1.5664,1.5684,1.5663,1.5669,1.5855,1.5856,1.5858,1.5831,0,0,0,0,0,0,1.5129,1.5152,1.5174,1.5253,1.5278,1.5379,1.5386,1.5399,1.5437,1.544,1.5521,1.5534,1.5575,1.5653,1.567,1.5693,1.5674,1.5853,1.5855,1.5857,1.583,1.5832,1.5833,0,0,0,0,0,1.5121,1.5161,1.5174,1.5194,1.5306,1.538,1.5395,1.544,1.5438,1.5462,1.551,1.5531,1.5679,1.566,1.568,1.5705,1.5852,1.5855,1.5857,1.583,1.5831,1.5833,0,0,0,0,0,0,1.5084,1.5172,1.5188,1.5254,1.5309,1.5388,1.5418,1.544,1.5498,1.5499,1.5554,1.5573,1.564,1.568,1.5657,1.5768,1.5767,1.5774,1.5739,1.5741,1.5743,1.5732,1.568,0,0,0,0,0,1.5084,1.5134,1.5209,1.5261,1.5288,1.5348,1.5382,1.5412,1.5472,1.5496,1.555,1.5609,1.567,1.5708,1.5767,1.5837,1.5856,1.5864,1.5865,1.5866,1.5871,1.5913,1.5917,1.5867,1.5867,1.5867,0,0,1.5083,1.5138,1.5166,1.5255,1.5301,1.5355,1.5368,1.5423,1.5464,1.5506,1.5575,1.5617,1.5688,1.5758,1.5792,1.5794,1.5889,1.5869,1.5869,1.5874,1.5916,1.592,1.5924,1.5869,1.5869,1.5869,0,0,1.511,1.5155,1.5204,1.525,1.5319,1.536,1.5371,1.5447,1.5476,1.5547,1.558,1.5631,1.5733,1.5781,1.582,1.5867,1.589,1.5885,1.5891,1.5931,1.5935,1.5939,1.5957,1.5963,1.589,1.589,1.589,0,1.5101,1.518,1.5226,1.5281,1.532,1.5358,1.5409,1.5453,1.5538,1.5566,1.5566,1.5695,1.5745,1.5829,1.584,1.587,1.5887,1.5876,1.593,1.5935,1.5939,1.5957,1.5963,1.5889,1.5889,1.589,1.589,0,1.5167,1.5222,1.5253,1.5334,1.5377,1.5429,1.5485,1.5524,1.5551,1.5592,1.5665,1.5727,1.58,1.5822,1.5849,1.591,1.5909,1.5919,1.5919,1.5942,1.596,1.5967,1.5888,1.5888,1.5889,1.5889,0,0,1.5172,1.5278,1.5289,1.5327,1.5407,1.5452,1.5508,1.5578,1.561,1.5669,1.5718,1.5804,1.5814,1.5858,1.5892,1.5927,1.5962,1.5933,1.5936,1.5937,1.6035,1.6026,1.6033,1.5977,1.5979,1.598,1.6029,0,1.521,1.5308,1.5352,1.5431,1.5484,1.5523,1.5572,1.5628,1.5669,1.5721,1.5768,1.5828,1.5836,1.5863,1.5899,1.5949,1.5982,1.5947,1.6026,1.6028,1.6006,1.6042,1.6034,1.6077,1.6036,1.6037,1.6038,0,1.5265,1.5323,1.5407,1.5483,1.5507,1.5549,1.5618,1.5667,1.5733,1.576,1.5809,1.5842,1.5904,1.59,1.5988,1.5963,1.5999,1.6029,1.6032,1.6041,1.6034,1.6053,1.6091,1.6098,1.6049,1.6049,1.6048,0,1.5262,1.536,1.5424,1.5455,1.5545,1.5574,1.5614,1.5678,1.5718,1.5779,1.5806,1.5874,1.5911,1.5965,1.6016,1.6008,1.61,1.6099,1.6126,1.6125,1.6143,1.6141,1.6188,1.6166,1.6165,1.6165,1.6165,0,1.5298,1.5349,1.5424,1.5462,1.5521,1.5573,1.563,1.5673,1.573,1.578,1.5819,1.5865,1.593,1.5985,1.6026,1.6094,1.611,1.6136,1.6146,1.6132,1.6129,1.6156,1.6154,1.6167,1.6167,1.6166,1.6166,0,1.5303,1.5355,1.5427,1.5507,1.5528,1.5568,1.5637,1.5678,1.5721,1.5784,1.5802,1.587,1.5937,1.5994,1.6083,1.611,1.6181,1.6193,1.6158,1.6163,1.6187,1.6184,1.6252,1.6264,1.6233,1.6234,1.6234,0,1.5323,1.5362,1.5446,1.5481,1.552,1.5576,1.5617,1.5671,1.5712,1.5791,1.5823,1.5893,1.5951,1.6058,1.6117,1.6186,1.62,1.622,1.6211,1.6196,1.6201,1.6198,1.6203,1.622,1.622,1.622,1.622,0,1.5353,1.5377,1.5433,1.5499,1.5547,1.5602,1.5658,1.5685,1.575,1.5795,1.5864,1.5909,1.6,1.6069,1.6145,1.6188,1.6216,1.6222,1.6232,1.6218,1.6197,1.6209,1.616,1.6221,1.622,1.622,1.622,1.622,1.5366,1.5404,1.5469,1.5531,1.5579,1.5631,1.5673,1.5722,1.5779,1.5856,1.5885,1.5956,1.6023,1.6127,1.6171,1.6229,1.6232,1.6246,1.625,1.6252,1.6251,1.6187,1.6243,1.6243,1.6243,1.6243,1.6243,0,1.5399,1.5443,1.5499,1.5576,1.5626,1.5646,1.571,1.5751,1.5812,1.5871,1.5928,1.6008,1.6077,1.6141,1.6214,1.6247,1.6262,1.6265,1.6263,1.6273,1.6243,1.6227,1.6252,1.6252,1.6252,1.6252,1.6252,1.6252,1.5421,1.5486,1.5518,1.5608,1.5653,1.5721,1.5756,1.5805,1.5853,1.594,1.5996,1.6038,1.61,1.6178,1.6242,1.626,1.6285,1.6284,1.6305,1.6276,1.6274,1.6273,1.6258,1.6289,1.6289,1.633,1.633,1.633]},{"header":{"parameterUnit":"m.s-1","parameterCategory":1,"la1":30.2991,"la2":30.254,"lo1":-89.0895,"lo2":-89.0444,"dy":0.0017,"dx":0.0017,"nx":28,"ny":28,"refTime":"2025-03-09T21:00:00:Z","depth":0,"parameterNumber":3,"parameterNumberName":"V-component_of_WINDS"},"data":[0,0,0,0,0,0,0,0,0,0,0,0,0,0,0,0,0,0,0,0,0,0,0,0,0,0,0,0,0,0,0,0,0,0,0,0,0,0,0,0,0,0,0,0,0,0,0,0,0,0,0,0,0,0,0,0,0,0,3.1971,3.1971,0,3.1958,3.1958,3.1958,3.1968,3.1968,3.1969,3.1969,3.1952,3.1951,3.195,0,0,0,0,0,0,0,0,0,0,0,0,0,3.2001,3.2,3.1971,3.1971,3.1971,3.1958,3.1958,3.1958,3.1968,3.1968,3.1969,3.1969,3.1952,3.1951,3.195,0,0,0,0,0,0,0,0,0,0,0,0,0,3.1988,3.2,3.1971,3.1974,3.1975,3.1958,3.1958,3.1958,3.1968,3.1968,3.1969,3.197,3.1953,3.1951,3.195,3.1929,0,0,3.1946,3.1946,0,0,0,0,0,0,0,0,3.1988,3.1987,3.1974,3.1974,3.1974,3.1966,3.1962,3.1948,3.1968,3.197,3.1969,3.197,3.1956,3.1954,3.195,3.1928,3.1927,3.1946,3.1945,3.1945,3.1944,0,0,0,0,0,0,0,3.1989,3.1987,3.1966,3.1974,3.1974,3.1975,3.1974,3.196,3.1959,3.197,3.1971,3.1969,3.1956,3.1951,3.195,3.1927,3.1946,3.1945,3.1944,3.1944,3.1886,3.1885,0,0,0,0,0,0,3.199,3.1988,3.1966,3.1966,3.1983,3.1974,3.1973,3.1968,3.196,3.1959,3.1969,3.197,3.1953,3.1951,3.1949,3.1923,3.1945,3.1943,3.1943,3.1887,3.1886,3.1885,0,0,0,0,0,0,3.1991,3.1988,3.1967,3.1977,3.1974,3.1973,3.1967,3.1967,3.1963,3.1959,3.1958,3.1965,3.1954,3.1951,3.1934,3.1923,3.1943,3.1942,3.1887,3.1886,3.1885,3.1871,0,0,0,0,0,0,3.1992,3.1989,3.1981,3.1977,3.1974,3.1953,3.1966,3.1966,3.1961,3.1962,3.1955,3.1954,3.1954,3.1936,3.1933,3.1921,3.1941,3.1888,3.1887,3.1886,3.1873,3.187,3.1867,0,0,0,0,0,3.1993,3.1977,3.1981,3.1978,3.1965,3.1952,3.1951,3.1952,3.196,3.1952,3.1949,3.1954,3.1925,3.1934,3.1931,3.1919,3.1889,3.1887,3.1886,3.1874,3.187,3.1868,0,0,0,0,0,0,3.198,3.1977,3.1981,3.1964,3.1958,3.1954,3.1944,3.1949,3.194,3.1941,3.1943,3.1941,3.1923,3.1919,3.1929,3.1897,3.1908,3.1905,3.19,3.1897,3.1894,3.1895,3.194,0,0,0,0,0,3.1975,3.1966,3.1964,3.1949,3.1946,3.1946,3.194,3.1942,3.1936,3.1933,3.1929,3.1922,3.1911,3.1904,3.1894,3.1873,3.187,3.1862,3.186,3.1858,3.1855,3.1843,3.1839,3.1879,3.1879,3.1879,0,0,3.1965,3.1962,3.1956,3.1946,3.1942,3.1932,3.1944,3.1932,3.1924,3.1931,3.1915,3.1912,3.1904,3.1884,3.1875,3.188,3.1844,3.1855,3.1854,3.1852,3.184,3.1837,3.1833,3.1878,3.1878,3.1878,0,0,3.194,3.1938,3.1925,3.1921,3.1915,3.1915,3.1912,3.1907,3.1906,3.189,3.1895,3.1884,3.1866,3.186,3.1854,3.1827,3.1831,3.1824,3.181,3.1797,3.1794,3.1791,3.1781,3.1777,3.1822,3.1822,3.1822,0,3.1928,3.1914,3.1918,3.1906,3.1901,3.1908,3.1894,3.189,3.188,3.1876,3.1882,3.1859,3.1854,3.1833,3.1826,3.1822,3.1817,3.1825,3.1795,3.1792,3.1789,3.1779,3.1775,3.1821,3.1821,3.1821,3.1821,0,3.1898,3.1888,3.1878,3.187,3.1864,3.1851,3.1852,3.1845,3.1847,3.1846,3.1828,3.1823,3.1812,3.1807,3.1808,3.1785,3.1789,3.1795,3.1805,3.1784,3.1775,3.1771,3.182,3.182,3.182,3.182,0,0,3.1865,3.186,3.1856,3.1852,3.1846,3.1838,3.1825,3.1815,3.1808,3.1801,3.1789,3.1773,3.1779,3.1773,3.1774,3.1763,3.1741,3.177,3.177,3.1764,3.1714,3.1709,3.1704,3.1744,3.1743,3.1742,3.1714,0,3.184,3.1819,3.1822,3.18,3.179,3.1797,3.1786,3.178,3.1778,3.1769,3.1766,3.1755,3.1764,3.176,3.1749,3.1746,3.1731,3.1748,3.1731,3.173,3.1732,3.1699,3.1694,3.1668,3.171,3.171,3.1709,0,3.1808,3.1801,3.1779,3.1775,3.1771,3.176,3.1751,3.1742,3.1735,3.1735,3.1728,3.1731,3.1716,3.1728,3.1706,3.1718,3.1711,3.1708,3.1707,3.1705,3.1718,3.1695,3.1659,3.1655,3.1704,3.1704,3.1705,0,3.1784,3.177,3.1755,3.1752,3.1746,3.1738,3.1735,3.173,3.1723,3.1715,3.171,3.17,3.1693,3.1684,3.1683,3.1692,3.1662,3.1674,3.1659,3.1659,3.1652,3.1652,3.1614,3.1649,3.1649,3.1649,3.1649,0,3.1756,3.1742,3.1744,3.1735,3.1719,3.1722,3.1706,3.1704,3.1699,3.1688,3.1693,3.1682,3.1682,3.1671,3.167,3.1652,3.1649,3.1647,3.1647,3.1646,3.1647,3.1641,3.1643,3.1648,3.1648,3.1649,3.1649,0,3.1727,3.1728,3.1712,3.1708,3.1707,3.1696,3.1692,3.1682,3.1681,3.1667,3.1664,3.1662,3.1649,3.1648,3.1632,3.1631,3.1609,3.1612,3.1612,3.1612,3.1598,3.1599,3.1554,3.1547,3.1588,3.1587,3.1587,0,3.1708,3.1698,3.1693,3.1687,3.1684,3.1674,3.1668,3.167,3.1663,3.1654,3.1645,3.1633,3.1624,3.1602,3.1598,3.1586,3.1587,3.1572,3.1585,3.1585,3.1586,3.1586,3.1584,3.1569,3.1569,3.1568,3.1568,0,3.1674,3.1675,3.1667,3.1659,3.1651,3.1644,3.1638,3.1632,3.1633,3.1625,3.1613,3.1605,3.159,3.1577,3.1565,3.1561,3.1564,3.1564,3.156,3.1559,3.1559,3.1558,3.1604,3.1565,3.1565,3.1566,3.1566,3.1566,3.1649,3.164,3.1635,3.1626,3.1621,3.1615,3.1606,3.1604,3.1594,3.1583,3.1585,3.157,3.1563,3.1547,3.1542,3.153,3.1534,3.1529,3.1527,3.1525,3.1524,3.1562,3.1527,3.1528,3.1528,3.1528,3.1528,0,3.1614,3.1612,3.1603,3.1595,3.1587,3.1592,3.1586,3.1578,3.1566,3.1559,3.155,3.1535,3.1523,3.1518,3.1505,3.1496,3.1498,3.1493,3.1493,3.1492,3.152,3.1525,3.1492,3.1492,3.1492,3.1492,3.1492,3.1492,3.1596,3.158,3.1581,3.1563,3.1561,3.1548,3.1543,3.1537,3.1532,3.1516,3.1506,3.1503,3.1497,3.1484,3.1472,3.1471,3.1466,3.146,3.1459,3.1486,3.149,3.1493,3.1497,3.1459,3.1459,3.1432,3.1431,3.1431]}]]